Location: Little Chesterford
(52.0500°N, 0.1833°E)
Time: 03:44:33
(UTC+00:00)

NOSS 3-1 (C) - Pass Details

Date: 26 September 2023
Orbit: 672 x 1534 km, 63.4° (Epoch: 03 November)

Event Time Altitude Azimuth Distance (km) Brightness Sun altitude
Rises 20:35:05 0° 225° (SW) 3,120 6.3 -25.1°
Reaches altitude 10° 20:37:16 10° 226° (SW) 2,266 5.5 -25.3°
Maximum altitude 20:42:26 87° 316° (NW) 851 3.1 -26.0°
Drops below altitude 10° 20:48:46 10° 46° (NE) 2,759 5.8 -26.8°
Sets 20:51:39 0° 47° (NE) 3,852 6.5 -27.1°
